This demonstration page uses our WeatherBlox Daily Observations layout. Learn more.

Left ArrowRight Arrow

Hourly Observations for November 18, 2019

Temp ( °F °C ) Dew Point ( °F °C ) Humidity (%) Winds ( mph kmh ) Pressure ( in mb ) Visibility ( mi km ) Precip ( " mm )
12:21 am 00:21 Mostly Cloudy 53 11.7 51 10.6 93 93 Calm 29.89 1012 10 16 0.00 0.00
12:40 am 00:40 Cloudy 54 12.2 51 10.6 90 90 Calm 29.88 1012 10 16 0.00 0.00
12:53 am 00:53 Cloudy 54 12.2 50 10 87 87 Calm 29.86 1011 10 16 0.00 0.00
1:08 am 01:08 Cloudy 53 11.7 51 10.6 93 93 Calm 29.87 1012 10 16 0.00 0.00
1:50 am 01:50 Cloudy 54 12 50 10 88 88 SSE 3 6 29.86 1011 10 16 0.00 0.00
1:53 am 01:53 Cloudy 54 12.2 50 10 87 87 SSE 5 7 29.84 1011 10 16 0.00 0.00
2:06 am 02:06 Cloudy 55 12.8 51 10.6 87 87 SSW 5 7 29.85 1011 10 16 0.00 0.00
2:15 am 02:15 Cloudy 54 12.2 52 11.1 93 93 SW 5 7 29.86 1011 10 16 0.00 0.00
2:53 am 02:53 Cloudy 54 12.2 52 11.1 93 93 SSW 3 6 29.84 1010 10 16 0.00 0.00
3:51 am 03:51 Cloudy 54 12 52 11 94 94 SSW 5 7 29.85 1011 10 16 0.00 0.00
3:53 am 03:53 Cloudy 53 11.7 52 11.1 96 96 SSW 5 7 29.83 1010 10 16 0.00 0.00
4:53 am 04:53 Cloudy 53 11.7 51 10.6 93 93 Calm 29.83 1010 10 16 0.00 0.00
5:25 am 05:25 Mostly Cloudy 51 10.6 50 10 96 96 W 3 6 29.85 1011 9 14 0.00 0.00
5:53 am 05:53 Mostly Cloudy 50 10 49 9.4 96 96 W 3 6 29.83 1010 8 13 0.00 0.00
6:41 am 06:41 Mostly Cloudy with Mist and Fog 49 9.4 48 8.9 97 97 SW 3 6 29.86 1011 3 5 0.00 0.00
6:49 am 06:49 Mostly Cloudy with Mist and Fog 48 9 48 9 100 100 Calm 29.85 1011 5 8 0.00 0.00
6:53 am 06:53 Mostly Cloudy with Mist and Fog 49 9.4 48 8.9 97 97 SSW 3 6 29.84 1010 5 8 0.00 0.00
7:08 am 07:08 Partly Cloudy with Mist and Fog 49 9.4 47 8.3 93 93 Calm 29.86 1011 6 10 0.00 0.00
7:27 am 07:27 Partly Cloudy with Mist and Fog 48 8.9 47 8.3 96 96 WSW 3 6 29.87 1012 1 2 0.00 0.00
7:50 am 07:50 Mostly Cloudy with Mist and Fog 48 9 46 8 94 94 Calm 29.87 1012 1 2 0.00 0.00
7:53 am 07:53 Cloudy with Mist and Fog 48 8.9 47 8.3 96 96 SW 3 6 29.85 1011 1 2 0.00 0.00
7:56 am 07:56 Cloudy with Fog 47 8.3 47 8.3 100 100 SW 3 6 29.88 1012 1 1 0.00 0.00
8:12 am 08:12 Cloudy with Mist and Fog 47 8.3 47 8.3 100 100 Calm 29.88 1012 1 2 0.00 0.00
8:24 am 08:24 Cloudy with Mist and Fog 47 8.3 47 8.3 100 100 Calm 29.88 1012 3 5 0.00 0.00
8:41 am 08:41 Cloudy with Mist and Fog 49 9.4 48 8.9 97 97 Calm 29.87 1012 5 8 0.00 0.00
8:53 am 08:53 Cloudy 49 9.4 45 7.2 86 86 Calm 29.85 1011 10 16 0.00 0.00
9:53 am 09:53 Sunny 54 12.2 38 3.3 55 55 NW 3 6 29.85 1011 10 16 0.00 0.00
10:53 am 10:53 Mostly Sunny 57 13.9 33 0.6 41 41 NW 8 13 29.84 1010 10 16 0.00 0.00
11:53 am 11:53 Sunny 58 14.4 34 1.1 41 41 WNW 5 7 29.82 1010 10 16 0.00 0.00
12:53 pm 12:53 Sunny 60 15.6 31 -0.6 33 33 VRB 3 6 29.78 1009 10 16 0.00 0.00
1:53 pm 13:53 Sunny 62 16.7 32 0 32 32 S 7 11 29.75 1007 10 16 0.00 0.00
2:53 pm 14:53 Sunny 62 16.7 31 -0.6 31 31 SW 8 13 29.74 1007 10 16 0.00 0.00
3:53 pm 15:53 Sunny 62 16.7 32 0 32 32 WSW 8 13 29.74 1007 10 16 0.00 0.00
4:53 pm 16:53 Sunny 59 15 34 1.1 39 39 WNW 7 11 29.75 1008 10 16 0.00 0.00
5:53 pm 17:53 Clear 56 13.3 36 2.2 47 47 WNW 7 11 29.77 1008 10 16 0.00 0.00
6:53 pm 18:53 Clear 53 11.7 36 2.2 52 52 W 3 6 29.80 1009 10 16 0.00 0.00
7:53 pm 19:53 Clear 49 9.4 38 3.3 66 66 Calm 29.80 1009 10 16 0.00 0.00
8:53 pm 20:53 Clear 47 8.3 38 3.3 71 71 Calm 29.80 1009 10 16 0.00 0.00
9:53 pm 21:53 Clear 47 8.3 38 3.3 71 71 W 3 6 29.81 1010 10 16 0.00 0.00
10:53 pm 22:53 Clear 47 8.3 37 2.8 69 69 WSW 3 6 29.82 1010 10 16 0.00 0.00
11:53 pm 23:53 Clear 46 7.8 37 2.8 71 71 W 3 6 29.82 1010 10 16 0.00 0.00

Powered by AerisWeather